YU4PTT-8 Weather Reports


Display with metric or nautical units.
time (UTC)temp
F
wind
direction
speed
MPH
gust
MPH
rain 1hr
in
rain 24hr
in
rain mn
in
humidity
%
barometer
mb
20260507022322 49 225 2.0 2.0 0.02 0.00 0.03 88 1004.3
20260507014322 52 158 1.0 1.0 0.00 0.00 0.00 75 1004.2
20260507010322 54 158 0.0 0.0 0.00 0.00 0.00 68 1003.8
20260507002352 54 158 0.0 0.0 0.00 0.00 0.00 70 1003.8
20260506235322 54 68 0.0 0.0 0.00 0.00 0.00 70 1003.9
20260506231322 55 68 1.0 1.0 0.00 0.00 0.00 68 1003.6
20260506223322 54 158 4.0 4.0 0.00 0.00 0.00 68 1003.8
20260506215322 56 90 3.0 3.0 0.00 0.00 0.00 67 1002.9
20260506211322 56 248 2.0 2.0 0.00 0.00 0.00 66 1003.0
20260506203322 58 90 1.0 1.0 0.00 0.00 0.00 62 1003.0
20260506195322 59 180 6.0 6.0 0.00 0.00 0.00 57 1003.1
20260506191321 60 158 0.0 0.0 0.00 0.00 0.00 54 1003.3
20260506183322 61 158 1.0 1.0 0.00 0.00 0.00 52 1003.0
20260506175352 62 90 0.0 0.0 0.00 0.00 0.00 52 1002.7
20260506171321 64 180 0.0 0.0 0.00 0.00 0.00 54 1002.6
20260506163322 66 158 0.0 0.0 0.00 0.00 0.00 52 1002.7
20260506155321 66 68 0.0 0.0 0.00 0.00 0.00 52 1002.8
20260506151351 66 45 0.0 0.0 0.00 0.00 0.00 53 1003.1
20260506144322 66 45 0.0 0.0 0.00 0.00 0.00 50 1003.2
20260506140351 67 68 0.0 0.0 0.00 0.00 0.00 54 1003.2
20260506132321 71 292 1.0 1.0 0.00 0.00 0.00 42 1003.5
20260506124321 70 315 0.0 0.0 0.00 0.00 0.00 43 1003.8
20260506120321 70 158 4.0 4.0 0.00 0.00 0.00 43 1004.0
20260506112321 67 45 2.0 2.0 0.00 0.00 0.00 50 1004.2
20260506104351 68 315 0.0 0.0 0.00 0.00 0.00 49 1004.6
20260506101321 67 315 0.0 0.0 0.00 0.00 0.00 45 1004.8
20260506093321 67 158 4.0 4.0 0.00 0.00 0.00 48 1004.8
20260506085351 66 112 1.0 1.0 0.00 0.00 0.00 49 1005.0
20260506082321 66 158 5.0 5.0 0.00 0.00 0.00 48 1004.8